Location: Cosy Dell
(34.2789°N, 117.4537°W)
Time: 20:08:41
(UTC+00:00)

Cosmos 1869 - Pass Details

Date: 14 July 2020
Orbit: 520 x 563 km, 82.5° (Epoch: 13 August)

Event Time Altitude Azimuth Distance (km) Brightness Sun altitude
Rises 05:06:15 0° 353° (N) 2,731 7.8 -21.1°
Reaches altitude 10° 05:08:25 10° 353° (N) 1,839 6.7 -21.4°
Maximum altitude 05:12:28 88° 274° (W) 563 3.2 -22.0°
Enters shadow 05:12:50 74° 180° (S) 583 3.2 -22.0°
